• In Hungary
  • List of Countries
  • For 7 days
  • Water Temperature
  • Satellite Maps
  • Weather Map
  • News
  • Weather Widgets
  • user-avatar
    Login

    Hourly Weather Lyudchicy

    Today, 23 October, Tuesday

    Time Temperature Precipitation Wind Pressure Humidity
    00:00 +5°C° 0.4 mm 4 mps 743 mmHg 89%
    01:00 +5°C° 0.4 mm 4 mps 743 mmHg 90%
    02:00 +5°C° 0 mm 4 mps 742 mmHg 92%
    03:00 +4°C° 0 mm 3 mps 742 mmHg 93%
    04:00 +3°C° 0 mm 3 mps 741 mmHg 94%
    05:00 +3°C° 0 mm 3 mps 741 mmHg 95%
    06:00 +3°C° 0 mm 3 mps 741 mmHg 94%
    07:00 +2°C° 0 mm 3 mps 740 mmHg 94%
    08:00 +2°C° 0 mm 3 mps 740 mmHg 91%
    09:00 +3°C° 0 mm 3 mps 739 mmHg 84%
    10:00 +4°C° 0 mm 4 mps 738 mmHg 77%
    11:00 +6°C° 0 mm 4 mps 738 mmHg 71%
    12:00 +6°C° 0 mm 5 mps 736 mmHg 69%
    13:00 +6°C° 0 mm 5 mps 735 mmHg 67%
    14:00 +5°C° 0 mm 6 mps 734 mmHg 65%
    15:00 +5°C° 0.2 mm 6 mps 733 mmHg 68%
    16:00 +4°C° 0.2 mm 6 mps 731 mmHg 71%
    17:00 +4°C° 0.2 mm 6 mps 730 mmHg 74%
    18:00 +3°C° 0.2 mm 6 mps 729 mmHg 76%
    19:00 +3°C° 0.2 mm 6 mps 727 mmHg 78%
    20:00 +3°C° 0.2 mm 7 mps 726 mmHg 79%
    21:00 +3°C° 0.5 mm 6 mps 725 mmHg 81%
    22:00 +3°C° 0.5 mm 6 mps 724 mmHg 83%
    23:00 +3°C° 0.5 mm 6 mps 723 mmHg 84%

    Tomorrow, 24 October, Wednesday

    Time Temperature Precipitation Wind Pressure Humidity
    00:00 +3°C° 0.6 mm 5 mps 722 mmHg 86%
    01:00 +4°C° 0.6 mm 4 mps 721 mmHg 88%
    02:00 +4°C° 0.6 mm 4 mps 720 mmHg 89%
    03:00 +4°C° 0.2 mm 3 mps 720 mmHg 91%
    04:00 +4°C° 0.2 mm 3 mps 719 mmHg 92%
    05:00 +4°C° 0.2 mm 3 mps 719 mmHg 93%
    06:00 +4°C° 0 mm 3 mps 719 mmHg 92%
    07:00 +4°C° 0 mm 3 mps 719 mmHg 91%
    08:00 +4°C° 0 mm 3 mps 719 mmHg 90%
    09:00 +4°C° 0 mm 3 mps 719 mmHg 85%
    10:00 +5°C° 0 mm 3 mps 719 mmHg 81%
    11:00 +7°C° 0 mm 3 mps 719 mmHg 76%
    12:00 +7°C° 0.1 mm 3 mps 719 mmHg 74%
    13:00 +7°C° 0.1 mm 2 mps 720 mmHg 72%
    14:00 +7°C° 0.1 mm 2 mps 720 mmHg 70%
    15:00 +6°C° 0 mm 2 mps 720 mmHg 75%
    16:00 +5°C° 0 mm 2 mps 721 mmHg 80%
    17:00 +5°C° 0 mm 2 mps 721 mmHg 85%
    18:00 +4°C° 0 mm 3 mps 722 mmHg 86%
    19:00 +3°C° 0 mm 3 mps 723 mmHg 88%
    20:00 +3°C° 0 mm 4 mps 723 mmHg 90%
    21:00 +4°C° 0.1 mm 4 mps 724 mmHg 89%
    22:00 +3°C° 0.1 mm 5 mps 724 mmHg 87%
    23:00 +3°C° 0.1 mm 6 mps 725 mmHg 86%

    Day after tomorrow, 25 October, Thursday

    Time Temperature Precipitation Wind Pressure Humidity
    00:00 +3°C° 0.2 mm 6 mps 726 mmHg 84%
    01:00 +3°C° 0.2 mm 6 mps 726 mmHg 83%
    02:00 +3°C° 0.2 mm 7 mps 727 mmHg 82%
    03:00 +2°C° 0.1 mm 7 mps 727 mmHg 82%
    04:00 +2°C° 0.1 mm 7 mps 728 mmHg 82%
    05:00 0°C° 0.1 mm 7 mps 728 mmHg 82%
    06:00 0°C° 0 mm 7 mps 728 mmHg 81%
    07:00 +1°C° 0 mm 6 mps 729 mmHg 80%
    08:00 +1°C° 0 mm 6 mps 729 mmHg 79%
    09:00 +2°C° 0.1 mm 6 mps 729 mmHg 77%
    10:00 +2°C° 0.1 mm 6 mps 729 mmHg 75%
    11:00 +3°C° 0.1 mm 5 mps 729 mmHg 73%
    12:00 +3°C° 0 mm 5 mps 729 mmHg 70%
    13:00 +3°C° 0 mm 5 mps 729 mmHg 66%
    14:00 +5°C° 0 mm 5 mps 729 mmHg 63%
    15:00 +4°C° 0 mm 4 mps 729 mmHg 69%
    16:00 +3°C° 0 mm 3 mps 729 mmHg 75%
    17:00 +3°C° 0 mm 2 mps 729 mmHg 81%
    18:00 +3°C° 0 mm 2 mps 729 mmHg 84%
    19:00 +2°C° 0 mm 2 mps 729 mmHg 87%
    20:00 +2°C° 0 mm 2 mps 729 mmHg 90%
    21:00 +2°C° 0 mm 2 mps 729 mmHg 90%
    22:00 +1°C° 0 mm 2 mps 730 mmHg 91%
    23:00 +1°C° 0 mm 2 mps 730 mmHg 92%

    26 October, Friday

    Time Temperature Precipitation Wind Pressure Humidity
    00:00 0°C° 0 mm 3 mps 730 mmHg 92%
    01:00 0°C° 0 mm 3 mps 730 mmHg 93%
    02:00 0°C° 0 mm 3 mps 731 mmHg 93%
    03:00 0°C° 0 mm 3 mps 731 mmHg 93%
    04:00 0°C° 0 mm 3 mps 731 mmHg 93%
    05:00 0°C° 0 mm 3 mps 731 mmHg 92%
    06:00 0°C° 0 mm 3 mps 731 mmHg 92%
    07:00 0°C° 0 mm 3 mps 732 mmHg 91%
    08:00 -1°C° 0 mm 4 mps 732 mmHg 91%
    09:00 +1°C° 0 mm 4 mps 732 mmHg 85%
    10:00 +3°C° 0 mm 4 mps 732 mmHg 79%
    11:00 +4°C° 0 mm 4 mps 733 mmHg 74%
    12:00 +4°C° 0 mm 4 mps 733 mmHg 70%
    13:00 +5°C° 0 mm 4 mps 733 mmHg 67%
    14:00 +5°C° 0 mm 4 mps 733 mmHg 63%
    15:00 +4°C° 0 mm 4 mps 734 mmHg 69%
    16:00 +3°C° 0 mm 3 mps 734 mmHg 75%
    17:00 +2°C° 0 mm 3 mps 734 mmHg 81%
    18:00 +2°C° 0 mm 3 mps 734 mmHg 84%
    19:00 +1°C° 0 mm 3 mps 734 mmHg 86%
    20:00 +1°C° 0 mm 3 mps 735 mmHg 89%
    21:00 +1°C° 0 mm 3 mps 734 mmHg 88%
    22:00 +1°C° 0 mm 3 mps 734 mmHg 87%
    23:00 +1°C° 0 mm 4 mps 734 mmHg 87%

    27 October, Saturday

    Time Temperature Precipitation Wind Pressure Humidity
    00:00 +1°C° 0.4 mm 4 mps 733 mmHg 87%
    01:00 +2°C° 0.4 mm 5 mps 732 mmHg 87%
    02:00 +2°C° 0.4 mm 6 mps 732 mmHg 87%
    03:00 +3°C° 0.4 mm 6 mps 731 mmHg 87%
    04:00 +3°C° 0.4 mm 7 mps 730 mmHg 87%
    05:00 +4°C° 0.4 mm 7 mps 729 mmHg 87%
    06:00 +4°C° 0.4 mm 7 mps 728 mmHg 85%
    07:00 +5°C° 0.4 mm 8 mps 728 mmHg 83%
    08:00 +5°C° 0.4 mm 8 mps 728 mmHg 82%
    09:00 +5°C° 0.2 mm 8 mps 728 mmHg 78%
    10:00 +5°C° 0.2 mm 8 mps 728 mmHg 74%
    11:00 +5°C° 0.2 mm 8 mps 729 mmHg 70%
    12:00 +5°C° 0.1 mm 8 mps 729 mmHg 68%
    13:00 +5°C° 0.1 mm 8 mps 729 mmHg 65%
    14:00 +5°C° 0.1 mm 8 mps 729 mmHg 62%
    15:00 +5°C° 0.1 mm 8 mps 729 mmHg 65%
    16:00 +4°C° 0.1 mm 8 mps 729 mmHg 67%
    17:00 +3°C° 0.1 mm 9 mps 729 mmHg 70%
    18:00 +3°C° 0.2 mm 9 mps 730 mmHg 71%
    19:00 +2°C° 0.2 mm 9 mps 731 mmHg 72%
    20:00 +2°C° 0.2 mm 8 mps 731 mmHg 73%
    21:00 +2°C° 0 mm 8 mps 733 mmHg 73%
    22:00 +1°C° 0 mm 8 mps 734 mmHg 74%
    23:00 +1°C° 0 mm 8 mps 736 mmHg 75%

    28 October, Sunday

    Time Temperature Precipitation Wind Pressure Humidity
    00:00 0°C° 0 mm 7 mps 737 mmHg 77%
    01:00 +1°C° 0 mm 6 mps 738 mmHg 79%
    02:00 0°C° 0 mm 5 mps 739 mmHg 80%
    03:00 0°C° 0 mm 5 mps 739 mmHg 83%
    04:00 -1°C° 0 mm 4 mps 740 mmHg 85%
    05:00 -1°C° 0 mm 4 mps 741 mmHg 88%
    06:00 0°C° 0 mm 3 mps 742 mmHg 88%
    07:00 -1°C° 0 mm 3 mps 743 mmHg 88%
    08:00 -1°C° 0 mm 3 mps 743 mmHg 89%
    09:00 +1°C° 0 mm 2 mps 744 mmHg 82%
    10:00 +3°C° 0 mm 2 mps 745 mmHg 74%
    11:00 +4°C° 0 mm 2 mps 745 mmHg 67%
    12:00 +5°C° 0 mm 2 mps 745 mmHg 65%
    13:00 +5°C° 0 mm 2 mps 746 mmHg 62%
    14:00 +6°C° 0 mm 2 mps 746 mmHg 60%
    15:00 +6°C° 0 mm 1 mps 746 mmHg 64%
    16:00 +5°C° 0 mm 1 mps 746 mmHg 68%
    17:00 +4°C° 0 mm 1 mps 747 mmHg 73%
    18:00 +4°C° 0 mm 1 mps 747 mmHg 74%
    19:00 +4°C° 0 mm 1 mps 747 mmHg 74%
    20:00 +4°C° 0 mm 1 mps 747 mmHg 75%
    21:00 +4°C° 0 mm 1 mps 747 mmHg 75%
    22:00 +4°C° 0 mm 1 mps 748 mmHg 76%
    23:00 +3°C° 0 mm 1 mps 748 mmHg 76%

    29 October, Monday

    Time Temperature Precipitation Wind Pressure Humidity
    00:00 +3°C° 0 mm 1 mps 748 mmHg 76%
    01:00 +3°C° 0 mm 1 mps 748 mmHg 77%
    02:00 +3°C° 0 mm 2 mps 748 mmHg 77%
    03:00 +2°C° 0.1 mm 2 mps 747 mmHg 78%
    04:00 +1°C° 0.1 mm 3 mps 747 mmHg 79%
    05:00 +1°C° 0.1 mm 3 mps 747 mmHg 80%
    06:00 +1°C° 0.6 mm 3 mps 747 mmHg 81%
    07:00 +1°C° 0.6 mm 3 mps 747 mmHg 83%
    08:00 0°C° 0.6 mm 4 mps 746 mmHg 84%
    09:00 0°C° 0.8 mm 4 mps 746 mmHg 86%
    10:00 0°C° 0.8 mm 5 mps 746 mmHg 87%
    11:00 0°C° 0.8 mm 5 mps 746 mmHg 89%
    12:00 -1°C° 0.7 mm 6 mps 746 mmHg 90%
    13:00 -1°C° 0.7 mm 6 mps 745 mmHg 90%
    14:00 -1°C° 0.7 mm 6 mps 745 mmHg 91%
    15:00 -1°C° 0.7 mm 6 mps 744 mmHg 91%
    16:00 -1°C° 0.7 mm 6 mps 744 mmHg 92%
    17:00 -1°C° 0.7 mm 6 mps 744 mmHg 93%
    18:00 0°C° 0.4 mm 5 mps 743 mmHg 93%
    19:00 0°C° 0.4 mm 5 mps 743 mmHg 94%
    20:00 0°C° 0.4 mm 5 mps 743 mmHg 94%
    21:00 0°C° 0.4 mm 5 mps 742 mmHg 95%
    22:00 0°C° 0.4 mm 5 mps 742 mmHg 95%
    23:00 0°C° 0.4 mm 4 mps 741 mmHg 96%
    Show more